Berlin, NH

3:52 AM EDT on May 23, 2017 (GMT -0400)
Berlin Municipal

Weather History for KBML - June, 2013

Change the Weather History Date:

Monday, June 17, 2013

  Actual Average Record
Temperature  
Mean Temperature 62 °F -  
Max Temperature 73 °F 72 °F 84 °F (2000)
Min Temperature 52 °F 45 °F 35 °F (2016)
Degree Days  
Heating Degree Days 3    
Growing Degree Days 12 (Base 50)    
Moisture  
Dew Point 55 °F    
Average Humidity 80    
Maximum Humidity 100    
Minimum Humidity 55    
Precipitation  
Precipitation 0.09 in - - ()
Sea Level Pressure  
Sea Level Pressure 29.81 in    
Wind  
Wind Speed 3 mph (West)    
Max Wind Speed 10 mph    
Max Gust Speed 20 mph    
Visibility 9 miles    
Events Rain , Thunderstorm    
Averages and records for this station are not official NWS values.
T = Trace of Precipitation, MM = Missing Value Source: NWS Daily Summary

Daily Weather History Graph

Daily Weather History Graph

Search for Another Location

Airport or City:

Trip Planner

Search our weather history database for the weather conditions in past years. The results will help you decide how hot, cold, wet, or windy it might be!

Date:

Astronomy

Jun. 17, 2013 Rise Set
Actual Time 4:59 AM EDT 8:32 PM EDT
Civil Twilight 4:22 AM EDT 9:09 PM EDT
Nautical Twilight 3:33 AM EDT 9:58 PM EDT
Astronomical Twilight 2:29 AM EDT 11:02 PM EDT
Moon 1:55 PM EDT (6/17) 12:47 AM EDT (6/17)
Length of Visible Light 16h 47m
Length of Day
15h 33m
First Quarter, 60% of the Moon is Illuminated
Jun 17
First Quarter
Jun 23
Full
Jun 30
Last Quarter
Jul 8
New
Jul 15
First Quarter

Hourly Weather History & Observations

Time (EDT) Temp. Dew Point Humidity Pressure Visibility Wind Dir Wind Speed Gust Speed Precip Events Conditions
12:33 AM 60.8 °F 57.2 °F 88% 29.76 in 10.0 mi Variable 4.6 mph - N/A   Overcast
12:52 AM 60.1 °F 55.9 °F 86% 29.76 in 10.0 mi Variable 3.5 mph - N/A   Mostly Cloudy
1:52 AM 59.0 °F 55.9 °F 90% 29.76 in 10.0 mi North 4.6 mph - N/A   Mostly Cloudy
2:03 AM 59.0 °F 55.4 °F 88% 29.77 in 10.0 mi Calm Calm - N/A   Mostly Cloudy
2:52 AM 59.0 °F 55.9 °F 90% 29.76 in 10.0 mi Calm Calm - N/A   Overcast
3:52 AM 59.0 °F 54.0 °F 83% 29.78 in 10.0 mi Calm Calm - N/A   Overcast
4:52 AM 55.9 °F 54.0 °F 93% 29.79 in 9.0 mi Calm Calm - N/A   Overcast
5:36 AM 53.6 °F 53.6 °F 100% 29.79 in 3.0 mi Calm Calm - N/A   Mostly Cloudy
5:44 AM 53.6 °F 51.8 °F 94% 29.79 in 3.0 mi Calm Calm - N/A   Partly Cloudy
5:52 AM 52.0 °F 51.1 °F 97% 29.80 in 1.5 mi Calm Calm - N/A   Partly Cloudy
6:02 AM 53.6 °F 51.8 °F 94% 29.80 in 4.0 mi Calm Calm - N/A   Partly Cloudy
6:52 AM 57.9 °F 55.0 °F 90% 29.81 in 10.0 mi Calm Calm - N/A   Clear
7:52 AM 63.0 °F 55.9 °F 78% 29.82 in 10.0 mi SW 3.5 mph - N/A   Mostly Cloudy
8:52 AM 66.9 °F 57.0 °F 70% 29.82 in 10.0 mi Variable 4.6 mph - N/A   Mostly Cloudy
9:52 AM 66.0 °F 57.0 °F 73% 29.81 in 10.0 mi SSW 4.6 mph - N/A   Overcast
10:41 AM 68.0 °F 57.2 °F 68% 29.81 in 10.0 mi Calm Calm - N/A   Overcast
10:52 AM 68.0 °F 55.9 °F 65% 29.81 in 10.0 mi Variable 6.9 mph - N/A   Overcast
11:52 AM 72.0 °F 55.0 °F 55% 29.79 in 10.0 mi Variable 5.8 mph - N/A   Mostly Cloudy
12:52 PM 72.0 °F 57.0 °F 59% 29.78 in 10.0 mi Variable 5.8 mph - 0.01 in Thunderstorm Mostly Cloudy
1:13 PM 66.2 °F 55.4 °F 68% 29.80 in 10.0 mi NNW 10.4 mph 19.6 mph N/A   Overcast
1:52 PM 64.9 °F 57.9 °F 78% 29.81 in 10.0 mi Calm Calm - 0.04 in   Mostly Cloudy
2:52 PM 70.0 °F 55.9 °F 61% 29.80 in 10.0 mi NW 9.2 mph - N/A   Mostly Cloudy
3:52 PM 66.9 °F 55.9 °F 68% 29.83 in 10.0 mi SW 5.8 mph - 0.00 in   Mostly Cloudy
4:36 PM 64.4 °F 55.4 °F 73% 29.83 in 1.8 mi Variable 4.6 mph - 0.04 in Rain Heavy Rain
4:43 PM 62.6 °F 57.2 °F 82% 29.83 in 3.0 mi Calm Calm - 0.04 in Rain Light Rain
4:52 PM 63.0 °F 59.0 °F 87% 29.83 in 10.0 mi Variable 3.5 mph - 0.04 in Rain Light Rain
5:52 PM 66.9 °F 57.9 °F 73% 29.83 in 10.0 mi Calm Calm - 0.00 in   Scattered Clouds
6:52 PM 66.9 °F 55.9 °F 68% 29.83 in 10.0 mi Variable 4.6 mph - N/A   Scattered Clouds
7:52 PM 64.9 °F 54.0 °F 68% 29.84 in 10.0 mi Variable 4.6 mph - N/A   Scattered Clouds
8:52 PM 62.1 °F 55.0 °F 78% 29.86 in 10.0 mi Calm Calm - N/A   Mostly Cloudy
9:52 PM 55.9 °F 54.0 °F 93% 29.91 in 10.0 mi Calm Calm - N/A   Mostly Cloudy
10:52 PM 57.0 °F 54.0 °F 89% 29.91 in 10.0 mi Calm Calm - N/A   Overcast
11:52 PM 57.0 °F 52.0 °F 83% 29.91 in 10.0 mi Variable 3.5 mph - N/A   Partly Cloudy